Theta_e
299 298 296 296 292 290 290 289 289 289 289 289 289 288 288 288 288 288 289 288 288 288 289 290 291 291 291
295 294 293 291 290 289 288 288 289 289 289 288 288 288 288 288 288 288 288 288 287 287 288 289 289 289 289
292 291 290 290 289 288 288 288 289 288 288 287 288 288 288 288 288 288 287 287 286 287 287 287 287 287 287
290 290 289 288 288 288 289 288 288 288 288 287 287 287 287 287 287 287 286 286 286 286 286 286 286 286 286
289 289 288 288 288 288 288 288 288 288 288 288 288 287 286 286 286 286 286 285 285 285 285 285 285 286 286
288 288 288 288 287 287 287 288 288 287 288 288 287 287 286 286 286 285 284 284 284 284 284 285 284 284 285
288 288 287 287 287 287 287 287 286 286 287 287 286 287 286 285 285 284 284 283 283 283 283 283 284 284 283
287 287 287 287 287 286 286 286 285 285 285 286 285 285 285 285 284 284 284 283 283 283 282 282 283 282 283
287 287 287 286 286 286 285 286 286 285 284 283 284 284 285 284 284 283 283 282 282 282 282 281 281 281 281
286 286 285 285 285 285 285 284 284 284 282 282 283 281 282 283 283 283 282 282 282 281 281 281 281 280 281
286 285 285 285 285 284 284 283 283 282 281 281 282 281 280 281 283 282 282 282 281 281 280 280 280 280 280
285 285 285 285 284 284 283 283 282 282 281 281 281 281 280 281 281 282 282 281 280 280 279 279 280 281 280
285 284 284 284 284 284 283 283 281 281 281 281 281 281 281 281 281 282 280 280 280 279 279 279 279 280 280
284 284 284 284 283 283 283 282 283 283 282 281 281 281 281 281 281 281 280 279 279 279 279 279 279 280 280
284 284 283 283 283 282 282 282 281 282 282 282 282 282 282 281 281 281 280 279 279 279 279 279 280 280 280
283 283 283 282 282 282 281 281 281 281 281 282 282 282 282 282 280 280 280 279 279 279 278 278 280 280 280
283 282 282 282 282 282 282 281 282 282 282 281 281 281 280 279 281 280 279 279 278 279 278 279 279 281 281
Wind_Speed
17 18 16 16 16 17 19 19 18 18 18 18 18 18 20 22 24 26 26 27 28 28 26 24 24 26 29
15 14 13 13 15 16 16 17 17 17 17 17 16 20 22 24 24 26 27 29 29 29 24 24 25 29 31
12 12 11 12 13 14 14 15 17 15 15 13 18 22 23 23 24 26 29 29 27 20 22 27 30 29 31
9 9 9 10 11 13 13 13 13 13 14 16 20 21 21 22 26 27 26 26 20 21 27 27 29 29 30
6 6 7 8 10 12 14 15 14 11 15 17 18 19 19 22 23 24 23 19 20 25 27 28 29 29 28
5 5 6 8 10 12 14 16 17 17 21 20 20 19 21 22 21 19 20 23 24 25 28 28 29 28 29
4 5 7 8 10 12 13 16 18 19 21 22 19 20 20 19 14 20 24 26 27 30 28 30 28 27 32
5 6 8 10 10 13 15 17 18 18 21 21 22 24 23 16 14 23 24 25 27 29 29 28 26 31 31
6 8 11 12 13 13 15 18 19 21 15 24 26 30 28 16 24 24 24 27 27 29 28 28 30 31 33
6 7 9 11 13 14 16 17 18 18 15 25 26 28 27 25 31 28 28 28 29 29 27 31 32 32 33
7 9 10 11 12 12 14 14 15 17 16 20 25 25 25 35 36 32 33 32 33 29 33 31 31 28 29
8 9 10 11 10 10 11 12 13 16 16 17 23 22 25 33 36 38 33 33 33 36 36 34 30 25 24
8 8 9 9 10 10 11 10 9 11 14 18 19 21 22 27 33 36 37 38 33 38 38 36 32 28 31
7 8 9 9 9 11 11 11 12 11 12 18 19 21 27 27 27 30 31 35 41 40 40 37 31 25 27
8 8 8 9 9 11 10 12 16 19 21 18 19 24 26 28 28 31 35 39 38 40 39 38 30 28 28
8 8 8 8 10 9 10 13 16 18 20 22 26 30 32 32 26 33 38 38 38 38 36 36 34 29 24
7 8 9 9 10 10 10 12 14 16 17 19 24 28 32 37 41 33 35 36 38 38 35 32 34 31 25
Wind_Direction
237 240 247 262 278 294 300 304 310 312 311 309 310 311 316 314 311 309 309 310 311 308 308 308 306 306 304
250 239 252 268 281 292 298 305 313 312 309 314 317 313 312 311 308 306 309 310 308 306 312 305 306 307 306
244 247 257 272 286 295 304 314 314 312 316 319 314 314 312 308 306 309 310 306 303 310 305 304 305 307 307
246 250 265 282 294 304 309 312 319 323 313 319 318 316 313 311 310 308 308 307 315 308 313 310 308 310 309
263 269 278 299 309 314 321 329 329 321 312 322 323 320 316 316 314 313 313 320 313 310 313 316 314 313 312
261 283 302 311 321 326 327 329 335 330 326 331 329 325 327 325 324 323 324 318 316 316 317 318 317 314 312
278 318 325 328 326 325 328 333 331 331 327 327 327 328 336 334 329 330 324 321 320 319 320 319 316 312 315
336 330 325 323 329 329 329 329 330 332 327 323 336 335 341 341 340 333 327 326 326 324 323 321 317 317 316
325 328 329 328 331 330 325 327 330 338 333 331 341 336 339 350 345 342 336 334 334 331 328 325 322 320 317
327 327 321 318 322 323 324 330 331 336 339 330 340 344 333 333 343 345 338 338 335 331 328 328 329 326 321
324 314 315 316 317 320 321 322 326 327 337 330 329 332 325 325 338 343 341 335 335 335 335 333 332 331 322
315 319 319 316 318 324 322 323 328 327 332 327 321 328 324 325 329 336 337 337 339 338 337 335 337 336 328
316 310 317 328 324 327 326 322 326 326 326 331 328 328 330 329 326 333 336 338 341 339 338 339 339 341 333
314 325 323 324 330 329 331 332 337 340 341 337 334 332 332 336 335 335 340 335 339 339 337 338 342 343 336
318 320 322 330 335 333 337 341 346 345 344 343 339 337 337 340 343 347 341 338 338 335 338 338 345 348 340
318 323 326 329 332 341 341 340 344 346 346 346 346 343 343 346 349 344 342 337 336 337 340 338 343 352 345
312 319 333 334 332 335 336 337 342 346 356 349 346 347 347 342 342 350 340 341 338 338 341 342 339 350 352